,,PA_Meas_PMT16A,,PR_Meas_QMR101_102,,RH_Meas_QMH101,,SR_Meas_QMS101,,TA_Meas_QMH101,,GenWind,,GenWind,
time,status,PA,status,PR,status,RH,status,SR,status,TA,status,DirAvg,status,SpdAvg,
2010-09-08, 00:00:04,VALID,918.201,VALID,0,VALID,97.0385,VALID,0,VALID,19.6233,VALID,67,VALID,0.742969,
2010-09-08, 00:01:04,VALID,918.204,VALID,0,VALID,97.0461,VALID,0.107441,VALID,19.6428,VALID,67,VALID,0.957812,
2010-09-08, 00:02:04,VALID,918.193,VALID,0,VALID,97.0613,VALID,0,VALID,19.6623,VALID,67,VALID,1.08789,
2010-09-08, 00:03:04,VALID,918.204,VALID,0,VALID,97.0842,VALID,0,VALID,19.6623,VALID,67,VALID,1.01484,
2010-09-08, 00:04:04,VALID,918.216,VALID,0,VALID,97.0766,VALID,0,VALID,19.6818,VALID,67,VALID,0.917969,
2010-09-08, 00:05:04,VALID,918.213,VALID,0,VALID,97.0613,VALID,0,VALID,19.6428,VALID,67,VALID,0.710156,
2010-09-08, 00:06:04,VALID,918.251,VALID,0,VALID,97.069,VALID,0.107441,VALID,19.6218,VALID,67,VALID,0.639063,
2010-09-08, 00:07:04,VALID,918.216,VALID,0,VALID,97.0842,VALID,0.107441,VALID,19.6218,VALID,67,VALID,0.638281,
2010-09-08, 00:08:04,VALID,918.219,VALID,0,VALID,97.0918,VALID,0,VALID,19.6233,VALID,67,VALID,0.559375,
2010-09-08, 00:09:04,VALID,918.25,VALID,0,VALID,97.0842,VALID,0,VALID,19.6833,VALID,67,VALID,0.342969,
2010-09-08, 00:10:04,VALID,918.229,VALID,0,VALID,97.1223,VALID,0.107441,VALID,19.6818,VALID,67,VALID,0.570703,
2010-09-08, 00:11:04,VALID,918.23,VALID,0,VALID,97.1071,VALID,0,VALID,19.6818,VALID,67,VALID,0.521094,
2010-09-08, 00:12:04,VALID,918.19,VALID,0,VALID,97.1147,VALID,0,VALID,19.6623,VALID,67,VALID,0.664063,
2010-09-08, 00:13:04,VALID,918.208,VALID,0,VALID,97.1071,VALID,0,VALID,19.6428,VALID,67,VALID,0.898438,
2010-09-08, 00:14:04,VALID,918.188,VALID,0,VALID,97.0994,VALID,0,VALID,19.6428,VALID,67,VALID,0.701172,
2010-09-08, 00:15:04,VALID,918.191,VALID,0,VALID,97.1071,VALID,0,VALID,19.6443,VALID,67,VALID,0.634375,
2010-09-08, 00:16:04,VALID,918.186,VALID,0,VALID,97.1299,VALID,0,VALID,19.6428,VALID,67,VALID,0.418359,
2010-09-08, 00:17:04,VALID,918.192,VALID,0,VALID,97.1071,VALID,0,VALID,19.6428,VALID,67,VALID,0.269141,
2010-09-08, 00:18:04,VALID,918.163,VALID,0,VALID,97.1223,VALID,0,VALID,19.6818,VALID,67,VALID,0.065625,
2010-09-08, 00:19:04,VALID,918.178,VALID,0,VALID,97.1299,VALID,0,VALID,19.6833,VALID,67,VALID,0.363281,
2010-09-08, 00:20:04,VALID,918.184,VALID,0,VALID,97.1299,VALID,0,VALID,19.6818,VALID,67,VALID,0.284766,
2010-09-08, 00:21:04,VALID,918.153,VALID,0,VALID,97.1299,VALID,0,VALID,19.6623,VALID,67,VALID,0.460156,
2010-09-08, 00:22:04,VALID,918.156,VALID,0,VALID,97.1376,VALID,0,VALID,19.6818,VALID,67,VALID,0.496875,
2010-09-08, 00:23:04,VALID,918.111,VALID,0,VALID,97.1376,VALID,0,VALID,19.7208,VALID,67,VALID,0.346484,
2010-09-08, 00:24:04,VALID,918.127,VALID,0,VALID,97.1681,VALID,0,VALID,19.7403,VALID,67,VALID,0.1,
2010-09-08, 00:25:04,VALID,918.097,VALID,0,VALID,97.1604,VALID,0,VALID,19.7598,VALID,67,VALID,0.494141,
2010-09-08, 00:26:04,VALID,918.045,VALID,0,VALID,97.1528,VALID,0,VALID,19.7808,VALID,67,VALID,0.0765625,
2010-09-08, 00:27:04,VALID,918.032,VALID,0,VALID,97.1528,VALID,0,VALID,19.7793,VALID,67,VALID,0.104297,
2010-09-08, 00:28:04,VALID,918.01,VALID,0,VALID,97.1604,VALID,0,VALID,19.7988,VALID,67,VALID,0,
2010-09-08, 00:29:04,VALID,917.974,VALID,0,VALID,97.1681,VALID,0,VALID,19.8183,VALID,67,VALID,0.174609,
2010-09-08, 00:30:04,VALID,917.975,VALID,0,VALID,97.1681,VALID,0,VALID,19.8558,VALID,67,VALID,0.0078125,
2010-09-08, 00:31:04,VALID,917.937,VALID,0,VALID,97.1909,VALID,0,VALID,19.9158,VALID,67,VALID,0,
2010-09-08, 00:32:04,VALID,917.979,VALID,0,VALID,97.1986,VALID,0,VALID,19.9158,VALID,67,VALID,0,
2010-09-08, 00:33:04,VALID,917.959,VALID,0,VALID,97.1681,VALID,0,VALID,19.9353,VALID,67,VALID,0,
2010-09-08, 00:34:04,VALID,917.976,VALID,0,VALID,97.1681,VALID,0,VALID,19.9158,VALID,67,VALID,0.363281,
2010-09-08, 00:35:04,VALID,917.951,VALID,0,VALID,97.1528,VALID,0,VALID,19.8573,VALID,67,VALID,0.703125,
2010-09-08, 00:36:04,VALID,917.937,VALID,0,VALID,97.1452,VALID,0,VALID,19.8183,VALID,67,VALID,0.897656,
2010-09-08, 00:37:04,VALID,917.954,VALID,0,VALID,97.1147,VALID,0,VALID,19.7988,VALID,67,VALID,0.971484,
2010-09-08, 00:38:04,VALID,917.946,VALID,0,VALID,97.1071,VALID,0,VALID,19.7793,VALID,67,VALID,1.01016,
2010-09-08, 00:39:04,VALID,917.99,VALID,0,VALID,97.1071,VALID,0,VALID,19.7988,VALID,67,VALID,0.908594,
2010-09-08, 00:40:04,VALID,917.993,VALID,0,VALID,97.0842,VALID,0,VALID,19.8183,VALID,68,VALID,0.944141,
2010-09-08, 00:41:04,VALID,918.002,VALID,0,VALID,97.0766,VALID,0,VALID,19.8378,VALID,68,VALID,0.964453,
2010-09-08, 00:42:04,VALID,917.971,VALID,0,VALID,97.069,VALID,0,VALID,19.8573,VALID,68,VALID,0.702734,
2010-09-08, 00:43:04,VALID,917.981,VALID,0,VALID,97.0918,VALID,0,VALID,19.8378,VALID,69,VALID,0.987109,
2010-09-08, 00:44:04,VALID,917.953,VALID,0,VALID,97.0918,VALID,0,VALID,19.8573,VALID,69,VALID,0.245703,
2010-09-08, 00:45:04,VALID,917.946,VALID,0,VALID,97.069,VALID,0,VALID,19.8558,VALID,112,VALID,0.591016,
2010-09-08, 00:46:04,VALID,917.935,VALID,0,VALID,97.0766,VALID,0,VALID,19.8768,VALID,113,VALID,0.925781,
2010-09-08, 00:47:04,VALID,917.893,VALID,0,VALID,97.0613,VALID,0,VALID,19.8768,VALID,113,VALID,0.663281,
2010-09-08, 00:48:04,VALID,917.884,VALID,0,VALID,97.0385,VALID,0,VALID,19.8363,VALID,113,VALID,0.405078,
2010-09-08, 00:49:04,VALID,917.87,VALID,0,VALID,97.0308,VALID,0,VALID,19.8768,VALID,113,VALID,0.408594,
2010-09-08, 00:50:04,VALID,917.882,VALID,0,VALID,97.0385,VALID,0,VALID,19.8573,VALID,113,VALID,0.640625,
2010-09-08, 00:51:04,VALID,917.851,VALID,0,VALID,97.0003,VALID,0,VALID,19.8573,VALID,113,VALID,0.764453,
2010-09-08, 00:52:04,VALID,917.836,VALID,0,VALID,96.9698,VALID,0.107441,VALID,19.8573,VALID,113,VALID,0.71875,
2010-09-08, 00:53:04,VALID,917.804,VALID,0,VALID,96.9546,VALID,0,VALID,19.8768,VALID,113,VALID,0.745703,
2010-09-08, 00:54:04,VALID,917.809,VALID,0,VALID,96.9241,VALID,0,VALID,19.8573,VALID,113,VALID,0.910156,
2010-09-08, 00:55:04,VALID,917.785,VALID,0,VALID,96.886,VALID,0,VALID,19.8378,VALID,113,VALID,0.872266,
2010-09-08, 00:56:04,VALID,917.767,VALID,0,VALID,96.8631,VALID,0,VALID,19.8378,VALID,113,VALID,0.828906,
2010-09-08, 00:57:04,VALID,917.763,VALID,0,VALID,96.8021,VALID,0,VALID,19.8378,VALID,113,VALID,0.803906,
2010-09-08, 00:58:04,VALID,917.737,VALID,0,VALID,96.7945,VALID,0,VALID,19.8378,VALID,113,VALID,0.346875,
2010-09-08, 00:59:04,VALID,917.728,VALID,0,VALID,96.8098,VALID,0,VALID,19.8573,VALID,113,VALID,0.198828,
2010-09-08, 01:00:04,VALID,917.707,VALID,0,VALID,96.8098,VALID,0,VALID,19.8768,VALID,113,VALID,0,
2010-09-08, 01:01:04,VALID,917.715,VALID,0,VALID,96.825,VALID,0,VALID,19.9173,VALID,113,VALID,0,
2010-09-08, 01:02:04,VALID,917.689,VALID,0,VALID,96.8174,VALID,0.107441,VALID,19.9158,VALID,113,VALID,0,
2010-09-08, 01:03:04,VALID,917.711,VALID,0,VALID,96.7488,VALID,0,VALID,19.8963,VALID,113,VALID,0,
2010-09-08, 01:04:04,VALID,917.708,VALID,0,VALID,96.7259,VALID,0,VALID,19.9158,VALID,113,VALID,0,
2010-09-08, 01:05:04,VALID,917.674,VALID,0,VALID,96.642,VALID,0,VALID,19.8963,VALID,113,VALID,0.436328,
2010-09-08, 01:06:04,VALID,917.713,VALID,0,VALID,96.6192,VALID,0.107441,VALID,19.8963,VALID,113,VALID,0.503906,
2010-09-08, 01:07:04,VALID,917.724,VALID,0,VALID,96.5353,VALID,0,VALID,19.8963,VALID,113,VALID,0.600391,
2010-09-08, 01:08:04,VALID,917.723,VALID,0,VALID,96.4896,VALID,0,VALID,19.8963,VALID,113,VALID,0.710156,
2010-09-08, 01:09:04,VALID,917.711,VALID,0,VALID,96.4667,VALID,0,VALID,19.9158,VALID,113,VALID,0.624609,
2010-09-08, 01:10:04,VALID,917.709,VALID,0,VALID,96.4286,VALID,0,VALID,19.8963,VALID,113,VALID,0.639063,
2010-09-08, 01:11:04,VALID,917.696,VALID,0,VALID,96.3752,VALID,0,VALID,19.9158,VALID,113,VALID,0.456641,
2010-09-08, 01:12:04,VALID,917.687,VALID,0,VALID,96.3219,VALID,0,VALID,19.8963,VALID,113,VALID,0.416797,
2010-09-08, 01:13:04,VALID,917.676,VALID,0,VALID,96.2761,VALID,0,VALID,19.8963,VALID,113,VALID,0.440234,
2010-09-08, 01:14:04,VALID,917.677,VALID,0,VALID,96.2304,VALID,0,VALID,19.8963,VALID,113,VALID,0.182031,
2010-09-08, 01:15:04,VALID,917.671,VALID,0,VALID,96.2151,VALID,0,VALID,19.8768,VALID,113,VALID,0.279297,
2010-09-08, 01:16:04,VALID,917.659,VALID,0,VALID,96.177,VALID,0,VALID,19.8768,VALID,113,VALID,0.445313,
2010-09-08, 01:17:04,VALID,917.662,VALID,0,VALID,96.1694,VALID,0,VALID,19.8963,VALID,113,VALID,0.740234,
2010-09-08, 01:18:04,VALID,917.646,VALID,0,VALID,96.1541,VALID,0,VALID,19.9158,VALID,113,VALID,0.65,
2010-09-08, 01:19:04,VALID,917.629,VALID,0,VALID,96.0703,VALID,0,VALID,19.8963,VALID,113,VALID,0.820313,
2010-09-08, 01:20:04,VALID,917.618,VALID,0,VALID,96.0245,VALID,0,VALID,19.8768,VALID,113,VALID,0.827344,
2010-09-08, 01:21:04,VALID,917.585,VALID,0,VALID,96.0017,VALID,0,VALID,19.8963,VALID,113,VALID,0.614844,
2010-09-08, 01:22:04,VALID,917.607,VALID,0,VALID,96.0245,VALID,0,VALID,19.8963,VALID,113,VALID,0.536328,
2010-09-08, 01:23:04,VALID,917.638,VALID,0,VALID,95.9712,VALID,0,VALID,19.8768,VALID,113,VALID,0.728906,
2010-09-08, 01:24:04,VALID,917.643,VALID,0,VALID,96.0322,VALID,0,VALID,19.8963,VALID,113,VALID,0.44375,
2010-09-08, 01:25:04,VALID,917.633,VALID,0,VALID,95.9788,VALID,0,VALID,19.8963,VALID,113,VALID,0.0195313,
2010-09-08, 01:26:04,VALID,917.635,VALID,0,VALID,95.9941,VALID,0,VALID,19.9548,VALID,113,VALID,0,
2010-09-08, 01:27:04,VALID,917.65,VALID,0,VALID,96.0017,VALID,0,VALID,19.9548,VALID,113,VALID,0,
2010-09-08, 01:28:04,VALID,917.645,VALID,0,VALID,95.9941,VALID,0.107441,VALID,19.9743,VALID,113,VALID,0,
2010-09-08, 01:29:04,VALID,917.667,VALID,0,VALID,95.9712,VALID,0,VALID,19.9938,VALID,113,VALID,0.391406,
2010-09-08, 01:30:04,VALID,917.655,VALID,0,VALID,95.9331,VALID,0,VALID,19.9938,VALID,113,VALID,0.398047,
2010-09-08, 01:31:04,VALID,917.665,VALID,0,VALID,95.8873,VALID,0,VALID,19.9743,VALID,113,VALID,0.00195313,
2010-09-08, 01:32:04,VALID,917.674,VALID,0,VALID,95.8492,VALID,0,VALID,19.9938,VALID,113,VALID,0,
2010-09-08, 01:33:04,VALID,917.666,VALID,0,VALID,95.8492,VALID,0.107441,VALID,19.9743,VALID,113,VALID,0,
2010-09-08, 01:34:04,VALID,917.705,VALID,0,VALID,95.8568,VALID,0,VALID,19.9938,VALID,113,VALID,0,
2010-09-08, 01:35:04,VALID,917.694,VALID,0,VALID,95.895,VALID,0,VALID,20.0133,VALID,113,VALID,0,
2010-09-08, 01:36:04,VALID,917.701,VALID,0,VALID,95.9407,VALID,0,VALID,20.0343,VALID,113,VALID,0,
2010-09-08, 01:37:04,VALID,917.696,VALID,0,VALID,95.9407,VALID,0,VALID,20.0133,VALID,113,VALID,0,
2010-09-08, 01:38:04,VALID,917.707,VALID,0,VALID,95.9636,VALID,0,VALID,20.0328,VALID,113,VALID,0,
2010-09-08, 01:39:04,VALID,917.673,VALID,0,VALID,96.0017,VALID,0,VALID,20.0523,VALID,113,VALID,0,
2010-09-08, 01:40:04,VALID,917.694,VALID,0,VALID,95.9941,VALID,0,VALID,20.0523,VALID,113,VALID,0,
2010-09-08, 01:41:04,VALID,917.651,VALID,0,VALID,95.9483,VALID,0,VALID,20.0733,VALID,113,VALID,0,
2010-09-08, 01:42:04,VALID,917.643,VALID,0,VALID,95.9102,VALID,0,VALID,20.0328,VALID,113,VALID,0,
2010-09-08, 01:43:04,VALID,917.675,VALID,0,VALID,95.8721,VALID,0,VALID,20.0523,VALID,113,VALID,0,
2010-09-08, 01:44:04,VALID,917.669,VALID,0,VALID,95.7958,VALID,0,VALID,20.0133,VALID,113,VALID,0,
2010-09-08, 01:45:04,VALID,917.625,VALID,0,VALID,95.8187,VALID,0,VALID,20.0523,VALID,113,VALID,0,
2010-09-08, 01:46:04,VALID,917.649,VALID,0,VALID,95.834,VALID,0,VALID,20.0523,VALID,113,VALID,0,
2010-09-08, 01:47:04,VALID,917.652,VALID,0,VALID,95.8568,VALID,0,VALID,20.0523,VALID,113,VALID,0,
2010-09-08, 01:48:04,VALID,917.673,VALID,0,VALID,95.8492,VALID,0,VALID,20.0328,VALID,113,VALID,0,
2010-09-08, 01:49:04,VALID,917.632,VALID,0,VALID,95.8492,VALID,0,VALID,20.0328,VALID,113,VALID,0.0738281,
2010-09-08, 01:50:04,VALID,917.599,VALID,0,VALID,95.9102,VALID,0,VALID,20.0523,VALID,113,VALID,0,
2010-09-08, 01:51:04,VALID,917.597,VALID,0,VALID,95.9712,VALID,0,VALID,20.0913,VALID,113,VALID,0.000390625,
2010-09-08, 01:52:04,VALID,917.617,VALID,0,VALID,96.0245,VALID,0,VALID,20.0913,VALID,113,VALID,0.00117188,
2010-09-08, 01:53:04,VALID,917.572,VALID,0,VALID,95.8797,VALID,0,VALID,20.0523,VALID,113,VALID,0.0359375,
2010-09-08, 01:54:04,VALID,917.56,VALID,0,VALID,95.834,VALID,0,VALID,20.0133,VALID,113,VALID,0,
2010-09-08, 01:55:04,VALID,917.57,VALID,0,VALID,95.8797,VALID,0,VALID,20.0328,VALID,113,VALID,0,
2010-09-08, 01:56:04,VALID,917.54,VALID,0,VALID,95.9254,VALID,0,VALID,20.0328,VALID,113,VALID,0,
2010-09-08, 01:57:04,VALID,917.501,VALID,0,VALID,96.0169,VALID,0,VALID,20.0523,VALID,113,VALID,0,
2010-09-08, 01:58:04,VALID,917.493,VALID,0,VALID,95.8645,VALID,0,VALID,20.0148,VALID,113,VALID,0.337891,
2010-09-08, 01:59:04,VALID,917.473,VALID,0,VALID,95.8035,VALID,0,VALID,19.9563,VALID,113,VALID,0.632422,
2010-09-08, 02:00:04,VALID,917.494,VALID,0,VALID,95.7882,VALID,0,VALID,19.9158,VALID,113,VALID,0.511328,
2010-09-08, 02:01:04,VALID,917.501,VALID,0,VALID,95.895,VALID,0,VALID,19.8963,VALID,113,VALID,0.226953,
2010-09-08, 02:02:04,VALID,917.497,VALID,0,VALID,95.9712,VALID,0,VALID,19.8963,VALID,113,VALID,0.216797,
2010-09-08, 02:03:04,VALID,917.485,VALID,0,VALID,95.9636,VALID,0,VALID,19.8573,VALID,113,VALID,0.255469,
2010-09-08, 02:04:04,VALID,917.5,VALID,0,VALID,96.0322,VALID,0,VALID,19.8378,VALID,113,VALID,0.373828,
2010-09-08, 02:05:04,VALID,917.483,VALID,0,VALID,96.0398,VALID,0,VALID,19.8183,VALID,113,VALID,0.736328,
2010-09-08, 02:06:04,VALID,917.513,VALID,0,VALID,96.0855,VALID,0,VALID,19.8393,VALID,113,VALID,0.672266,
2010-09-08, 02:07:04,VALID,917.503,VALID,0,VALID,96.1084,VALID,0,VALID,19.8183,VALID,113,VALID,0.488281,
2010-09-08, 02:08:04,VALID,917.537,VALID,0,VALID,96.1465,VALID,0,VALID,19.8198,VALID,113,VALID,0.285547,
2010-09-08, 02:09:04,VALID,917.519,VALID,0,VALID,96.2151,VALID,0,VALID,19.8183,VALID,113,VALID,0,
2010-09-08, 02:10:04,VALID,917.506,VALID,0,VALID,96.1923,VALID,0,VALID,19.8183,VALID,113,VALID,0,
2010-09-08, 02:11:04,VALID,917.479,VALID,0,VALID,96.1694,VALID,0,VALID,19.7988,VALID,113,VALID,0.388281,
2010-09-08, 02:12:04,VALID,917.43,VALID,0,VALID,96.1541,VALID,0,VALID,19.7793,VALID,113,VALID,0.628516,
2010-09-08, 02:13:04,VALID,917.428,VALID,0,VALID,96.1923,VALID,0,VALID,19.7598,VALID,113,VALID,0.503125,
2010-09-08, 02:14:04,VALID,917.4,VALID,0,VALID,96.238,VALID,0,VALID,19.7988,VALID,113,VALID,0.109766,
2010-09-08, 02:15:04,VALID,917.412,VALID,0,VALID,96.2304,VALID,0.107441,VALID,19.7988,VALID,113,VALID,0,
2010-09-08, 02:16:04,VALID,917.396,VALID,0,VALID,96.238,VALID,0.107441,VALID,19.8183,VALID,113,VALID,0.123828,
2010-09-08, 02:17:04,VALID,917.4,VALID,0,VALID,96.2609,VALID,0.107441,VALID,19.8378,VALID,113,VALID,0.260156,
2010-09-08, 02:18:04,VALID,917.363,VALID,0,VALID,96.1923,VALID,0,VALID,19.8378,VALID,113,VALID,0.248047,
2010-09-08, 02:19:04,VALID,917.382,VALID,0,VALID,96.2685,VALID,0.107441,VALID,19.8768,VALID,113,VALID,0.0871094,
2010-09-08, 02:20:04,VALID,917.367,VALID,0,VALID,96.2609,VALID,0,VALID,19.8768,VALID,113,VALID,0,
2010-09-08, 02:21:04,VALID,917.365,VALID,0,VALID,96.2685,VALID,0,VALID,19.8768,VALID,113,VALID,0,
2010-09-08, 02:22:04,VALID,917.309,VALID,0,VALID,96.2075,VALID,0,VALID,19.8768,VALID,113,VALID,0,
2010-09-08, 02:23:04,VALID,917.328,VALID,0,VALID,96.1846,VALID,0,VALID,19.8768,VALID,113,VALID,0,
2010-09-08, 02:24:05,VALID,917.337,VALID,0,VALID,96.177,VALID,0.107441,VALID,19.8768,VALID,113,VALID,0,
2010-09-08, 02:25:05,VALID,917.334,VALID,0,VALID,96.1008,VALID,0.107441,VALID,19.8573,VALID,113,VALID,0.390234,
2010-09-08, 02:26:05,VALID,917.311,VALID,0,VALID,96.1389,VALID,0.107441,VALID,19.8963,VALID,113,VALID,0.258203,
2010-09-08, 02:27:05,VALID,917.298,VALID,0,VALID,96.1923,VALID,0,VALID,19.9158,VALID,113,VALID,0.0667969,
2010-09-08, 02:28:05,VALID,917.282,VALID,0,VALID,96.1465,VALID,0.107441,VALID,19.8963,VALID,113,VALID,0.00234375,
2010-09-08, 02:29:05,VALID,917.257,VALID,0,VALID,96.1084,VALID,0.107441,VALID,19.8963,VALID,113,VALID,0.275391,
2010-09-08, 02:30:05,VALID,917.256,VALID,0,VALID,96.0474,VALID,0,VALID,19.8378,VALID,113,VALID,0.349609,
2010-09-08, 02:31:05,VALID,917.254,VALID,0,VALID,96.1313,VALID,0,VALID,19.8768,VALID,113,VALID,0.525781,
2010-09-08, 02:32:05,VALID,917.231,VALID,0,VALID,96.1236,VALID,0.107441,VALID,19.8378,VALID,113,VALID,0.260547,
2010-09-08, 02:33:05,VALID,917.228,VALID,0,VALID,96.1084,VALID,0,VALID,19.8573,VALID,113,VALID,0.444922,
2010-09-08, 02:34:05,VALID,917.227,VALID,0,VALID,96.0398,VALID,0,VALID,19.8768,VALID,113,VALID,0.494141,
2010-09-08, 02:35:05,VALID,917.214,VALID,0,VALID,96.0627,VALID,0,VALID,19.8768,VALID,113,VALID,0.0445312,
2010-09-08, 02:36:05,VALID,917.226,VALID,0,VALID,96.0398,VALID,0,VALID,19.8573,VALID,113,VALID,0.428125,
2010-09-08, 02:37:05,VALID,917.193,VALID,0,VALID,96.116,VALID,0,VALID,19.8768,VALID,113,VALID,0.140234,
2010-09-08, 02:38:05,VALID,917.203,VALID,0,VALID,96.0703,VALID,0,VALID,19.8573,VALID,113,VALID,0.357812,
2010-09-08, 02:39:05,VALID,917.194,VALID,0,VALID,96.1008,VALID,0.107441,VALID,19.8573,VALID,113,VALID,0.294141,
2010-09-08, 02:40:05,VALID,917.211,VALID,0,VALID,96.1389,VALID,0,VALID,19.8768,VALID,113,VALID,0.519922,
2010-09-08, 02:41:05,VALID,917.174,VALID,0,VALID,96.055,VALID,0,VALID,19.8183,VALID,113,VALID,0.546484,
2010-09-08, 02:42:05,VALID,917.169,VALID,0,VALID,96.1236,VALID,0.107441,VALID,19.8183,VALID,113,VALID,0.615625,
2010-09-08, 02:43:05,VALID,917.174,VALID,0,VALID,96.177,VALID,0,VALID,19.8183,VALID,113,VALID,0.610156,
2010-09-08, 02:44:05,VALID,917.15,VALID,0,VALID,96.1999,VALID,0.107441,VALID,19.8183,VALID,113,VALID,0.26875,
2010-09-08, 02:45:05,VALID,917.151,VALID,0,VALID,96.2533,VALID,0,VALID,19.7988,VALID,113,VALID,0.0121094,
2010-09-08, 02:46:05,VALID,917.114,VALID,0,VALID,96.3142,VALID,0,VALID,19.8183,VALID,113,VALID,0.208203,
2010-09-08, 02:47:05,VALID,917.131,VALID,0,VALID,96.3371,VALID,0,VALID,19.8183,VALID,113,VALID,0.292578,
2010-09-08, 02:48:05,VALID,917.122,VALID,0,VALID,96.3752,VALID,0,VALID,19.8183,VALID,113,VALID,0.0613281,
2010-09-08, 02:49:05,VALID,917.145,VALID,0,VALID,96.3676,VALID,0.107441,VALID,19.8183,VALID,113,VALID,0.394141,
2010-09-08, 02:50:05,VALID,917.12,VALID,0,VALID,96.3905,VALID,0,VALID,19.7988,VALID,113,VALID,0.276953,
2010-09-08, 02:51:05,VALID,917.152,VALID,0,VALID,96.4286,VALID,0.107441,VALID,19.7988,VALID,113,VALID,0,
2010-09-08, 02:52:05,VALID,917.096,VALID,0,VALID,96.4057,VALID,0,VALID,19.7988,VALID,113,VALID,0,
2010-09-08, 02:53:05,VALID,917.099,VALID,0,VALID,96.3981,VALID,0,VALID,19.7598,VALID,113,VALID,0.816016,
2010-09-08, 02:54:05,VALID,917.088,VALID,0,VALID,96.4743,VALID,0,VALID,19.7793,VALID,113,VALID,0.517578,
2010-09-08, 02:55:05,VALID,917.056,VALID,0,VALID,96.421,VALID,0,VALID,19.7598,VALID,49,VALID,0.719922,
2010-09-08, 02:56:05,VALID,917.062,VALID,0,VALID,96.3829,VALID,0,VALID,19.7403,VALID,35,VALID,0.801172,
2010-09-08, 02:57:05,VALID,917.081,VALID,0,VALID,96.3905,VALID,0.107441,VALID,19.7208,VALID,35,VALID,0.844531,
2010-09-08, 02:58:05,VALID,917.066,VALID,0,VALID,96.3752,VALID,0,VALID,19.7208,VALID,35,VALID,0.710156,
2010-09-08, 02:59:05,VALID,917.08,VALID,0,VALID,96.3829,VALID,0.107441,VALID,19.7208,VALID,35,VALID,0.546875,
2010-09-08, 03:00:05,VALID,917.059,VALID,0,VALID,96.4286,VALID,0,VALID,19.7403,VALID,35,VALID,0.289844,
2010-09-08, 03:01:05,VALID,917.09,VALID,0,VALID,96.4362,VALID,0,VALID,19.7793,VALID,35,VALID,0.472656,
2010-09-08, 03:02:05,VALID,917.075,VALID,0,VALID,96.421,VALID,0,VALID,19.7598,VALID,35,VALID,0.126563,
2010-09-08, 03:03:05,VALID,917.068,VALID,0,VALID,96.4515,VALID,0,VALID,19.7598,VALID,35,VALID,0.114453,
2010-09-08, 03:04:05,VALID,917.077,VALID,0,VALID,96.3524,VALID,0,VALID,19.7598,VALID,35,VALID,0.627344,
2010-09-08, 03:05:05,VALID,917.067,VALID,0,VALID,96.3752,VALID,0.107441,VALID,19.7403,VALID,35,VALID,0.328125,
2010-09-08, 03:06:05,VALID,917.087,VALID,0,VALID,96.3829,VALID,0,VALID,19.7598,VALID,35,VALID,0.00117188,
2010-09-08, 03:07:05,VALID,917.114,VALID,0,VALID,96.4362,VALID,0,VALID,19.7598,VALID,35,VALID,0.546094,
2010-09-08, 03:08:05,VALID,917.118,VALID,0,VALID,96.4591,VALID,0.107441,VALID,19.7583,VALID,35,VALID,0.438672,
2010-09-08, 03:09:05,VALID,917.124,VALID,0,VALID,96.421,VALID,0,VALID,19.8003,VALID,35,VALID,0.358203,
2010-09-08, 03:10:05,VALID,917.125,VALID,0,VALID,96.4057,VALID,0.107441,VALID,19.7598,VALID,35,VALID,0.122656,
2010-09-08, 03:11:05,VALID,917.101,VALID,0,VALID,96.4667,VALID,0,VALID,19.7388,VALID,35,VALID,0.685938,
2010-09-08, 03:12:05,VALID,917.14,VALID,0,VALID,96.4743,VALID,0.107441,VALID,19.7583,VALID,35,VALID,0.489453,
2010-09-08, 03:13:05,VALID,917.179,VALID,0,VALID,96.5048,VALID,0,VALID,19.7793,VALID,35,VALID,0.110547,
2010-09-08, 03:14:05,VALID,917.161,VALID,0,VALID,96.5124,VALID,0,VALID,19.7988,VALID,35,VALID,0,
2010-09-08, 03:15:05,VALID,917.171,VALID,0,VALID,96.4896,VALID,0,VALID,19.7598,VALID,35,VALID,0.244922,
2010-09-08, 03:16:05,VALID,917.199,VALID,0,VALID,96.4972,VALID,0,VALID,19.7598,VALID,35,VALID,0.281641,
2010-09-08, 03:17:05,VALID,917.21,VALID,0,VALID,96.5048,VALID,0,VALID,19.7403,VALID,35,VALID,0,
2010-09-08, 03:18:05,VALID,917.256,VALID,0,VALID,96.4743,VALID,0,VALID,19.7403,VALID,35,VALID,0.721094,
2010-09-08, 03:19:05,VALID,917.316,VALID,0,VALID,96.4438,VALID,0,VALID,19.7208,VALID,34,VALID,0.972656,
2010-09-08, 03:20:05,VALID,917.338,VALID,0,VALID,96.2533,VALID,0.107441,VALID,19.7208,VALID,34,VALID,0.337891,
2010-09-08, 03:21:05,VALID,917.445,VALID,0,VALID,96.1084,VALID,0,VALID,19.7403,VALID,355,VALID,1.27344,
2010-09-08, 03:22:05,VALID,917.483,VALID,0,VALID,95.9559,VALID,0,VALID,19.8183,VALID,248,VALID,1.78906,
2010-09-08, 03:23:05,VALID,917.534,VALID,0,VALID,95.8035,VALID,0,VALID,19.8378,VALID,233,VALID,2.75586,
2010-09-08, 03:24:05,VALID,917.531,VALID,0,VALID,95.8797,VALID,0.107441,VALID,19.8183,VALID,223,VALID,1.71523,
2010-09-08, 03:25:05,VALID,917.51,VALID,0,VALID,96.0169,VALID,0,VALID,19.8183,VALID,239,VALID,0.9375,
2010-09-08, 03:26:05,VALID,917.511,VALID,0,VALID,96.0093,VALID,0,VALID,19.7793,VALID,233,VALID,1.77656,
2010-09-08, 03:27:05,VALID,917.501,VALID,0,VALID,95.9788,VALID,0,VALID,19.7793,VALID,195,VALID,1.7875,
2010-09-08, 03:28:05,VALID,917.472,VALID,0,VALID,95.9331,VALID,0,VALID,19.7598,VALID,194,VALID,0.933203,
2010-09-08, 03:29:05,VALID,917.471,VALID,0,VALID,95.7806,VALID,0.107441,VALID,19.7193,VALID,244,VALID,1.37422,
2010-09-08, 03:30:05,VALID,917.447,VALID,0,VALID,95.4757,VALID,0,VALID,19.7598,VALID,246,VALID,1.18359,
2010-09-08, 03:31:05,VALID,917.437,VALID,0,VALID,95.0259,VALID,0,VALID,19.7403,VALID,262,VALID,1.75,
2010-09-08, 03:32:05,VALID,917.465,VALID,0,VALID,94.4846,VALID,0,VALID,19.7598,VALID,219,VALID,1.3043,
2010-09-08, 03:33:05,VALID,917.479,VALID,0,VALID,94.3931,VALID,0,VALID,19.7793,VALID,248,VALID,1.28047,
2010-09-08, 03:34:05,VALID,917.483,VALID,0,VALID,94.8277,VALID,0,VALID,19.7988,VALID,249,VALID,0.412891,
2010-09-08, 03:35:05,VALID,917.45,VALID,0,VALID,95.1402,VALID,0,VALID,19.8003,VALID,242,VALID,1.20391,
2010-09-08, 03:36:05,VALID,917.519,VALID,0,VALID,95.3079,VALID,0.107441,VALID,19.7403,VALID,262,VALID,1.53203,
2010-09-08, 03:37:05,VALID,917.48,VALID,0,VALID,95.1021,VALID,0,VALID,19.6623,VALID,282,VALID,0.862891,
2010-09-08, 03:38:05,VALID,917.49,VALID,0,VALID,94.2788,VALID,0.107441,VALID,19.6233,VALID,273,VALID,1.38203,
2010-09-08, 03:39:05,VALID,917.498,VALID,0,VALID,92.4873,VALID,0.107441,VALID,19.6428,VALID,272,VALID,1.54453,
2010-09-08, 03:40:05,VALID,917.47,VALID,0,VALID,92.2662,VALID,0,VALID,19.6428,VALID,249,VALID,1.67891,
2010-09-08, 03:41:05,VALID,917.46,VALID,0,VALID,92.1214,VALID,0,VALID,19.6428,VALID,234,VALID,1.00234,
2010-09-08, 03:42:05,VALID,917.436,VALID,0,VALID,90.9321,VALID,0.107441,VALID,19.6428,VALID,268,VALID,3.17344,
2010-09-08, 03:43:05,VALID,917.454,VALID,0,VALID,91.2294,VALID,0.107441,VALID,19.6428,VALID,257,VALID,1.58867,
2010-09-08, 03:44:05,VALID,917.434,VALID,0,VALID,90.5281,VALID,0,VALID,19.6233,VALID,261,VALID,0.996875,
2010-09-08, 03:45:05,VALID,917.428,VALID,0,VALID,90.1393,VALID,0,VALID,19.6623,VALID,271,VALID,1.56445,